Hlavní strana
METAR-TAF:

METAR-TAF

Letiště :

Lycksele, Švédsko

zeměpisná šířka: 64-32-51N, zeměpisná délka: 018-43-03E, výška: 211 m

Aktuální stav počasí

Zpráva byla vytvořena před 34 minutami, v 13:20 UTC
Severozápadní vítr 11 kt
Teplota -2°C
Vlhkost vzduchu 74%
Tlak 997 hPa
Viditelnost 10 km a více

METAR: ESNL 181320Z AUTO 32011KT 9999 OVC018/// M02/M06 Q0997

Čas: 14:54 (13:54 UTC)


TAF: chybějící

Stav a předpovědi počasí z více než 4 000 letišť (zprávy METAR a TAF).

Červené a žluté tečky na mapě představují dostupné meteorologické stanice.

Když kurzor umístíte na tečku, zobrazí se název stanice.

Pak kliknutím zobrazíte stav a předpověď počasí.

Chcete-li změnit mapu, kliknutím na zelené tlačítko se znaménkem +mapu přiblížíte, kliknutím na zelené tlačítko se znaménkem – mapu oddálíte a kliknutím na zelené šipky přejdete na sousední mapy.


METAR-TAF: